Weather History for Fayetteville, AR

Change the Weather History Date:

Friday, November 16, 2012

  Actual Average Record
Temperature  
Mean Temperature 44 °F 47 °F  
Max Temperature 62 °F 59 °F 77 °F (1964)
Min Temperature 26 °F 36 °F 16 °F (1955)
Degree Days  
Heating Degree Days 21 18  
Month to date heating degree days 236  
Since 1 July heating degree days 536  
Moisture  
Dew Point 29 °F    
Average Humidity 69    
Maximum Humidity 96    
Minimum Humidity 29    
Precipitation  
Precipitation 0.00 in 0.14 in 1.55 in (1958)
Month to date precipitation 2.31  
Year to date precipitation 43.35  
Sea Level Pressure  
Sea Level Pressure 30.41 in    
Wind  
Wind Speed 1 mph (NE)    
Max Wind Speed 8 mph    
Max Gust Speed -    
Visibility 10 miles    
Events      
T = Trace of Precipitation, MM = Missing Value Source: NWS Daily Summary

Daily Weather History Graph

Daily Weather History Graph

Search for Another Location

Airport:

Trip Planner

Search our weather history database for the weather conditions in past years. The results will help you decide how hot, cold, wet, or windy it might be!

Date:

Astronomy

Nov. 16, 2012 Rise Set
Actual Time 6:54 AM CST 5:08 PM CST
Civil Twilight 6:27 AM CST 5:35 PM CST
Nautical Twilight 5:56 AM CST 6:06 PM CST
Astronomical Twilight 5:25 AM CST 6:36 PM CST
Moon 9:48 AM CST (11/16) 8:09 PM CST (11/16)
Length of Visible Light 11h 08m
Length of Day
10h 13m
Waxing Crescent, 12% of the Moon is Illuminated
Nov 16
Waxing Crescent
Nov 20
First Quarter
Nov 28
Full
Dec 6
Last Quarter
Dec 13
New

Hourly Weather History & Observations

Time (CST) Temp. Dew Point Humidity Pressure Visibility Wind Dir Wind Speed Gust Speed Precip Events Conditions
12:53 AM 30.9 °F 28.0 °F 89% 30.39 in 10.0 mi Calm Calm - N/A   Clear
1:53 AM 30.0 °F 28.0 °F 92% 30.39 in 10.0 mi Calm Calm - N/A   Clear
2:53 AM 28.9 °F 27.0 °F 92% 30.40 in 10.0 mi Calm Calm - N/A   Clear
3:53 AM 28.0 °F 26.1 °F 92% 30.40 in 10.0 mi Calm Calm - N/A   Clear
4:53 AM 27.0 °F 25.0 °F 92% 30.41 in 10.0 mi Calm Calm - N/A   Clear
5:53 AM 28.0 °F 26.1 °F 92% 30.43 in 10.0 mi Calm Calm - N/A   Clear
6:53 AM 26.1 °F 25.0 °F 96% 30.45 in 9.0 mi Calm Calm - N/A   Clear
7:53 AM 30.0 °F 28.0 °F 92% 30.46 in 10.0 mi Calm Calm - N/A   Clear
8:53 AM 36.0 °F 32.0 °F 86% 30.47 in 10.0 mi Calm Calm - N/A   Clear
9:53 AM 46.0 °F 34.0 °F 63% 30.46 in 10.0 mi Calm Calm - N/A   Clear
10:53 AM 55.9 °F 34.0 °F 44% 30.45 in 10.0 mi Calm Calm - N/A   Clear
11:53 AM 57.9 °F 30.0 °F 35% 30.43 in 10.0 mi East 8.1 mph - N/A   Clear
12:53 PM 60.1 °F 30.9 °F 33% 30.40 in 10.0 mi Calm Calm - N/A   Clear
1:53 PM 61.0 °F 30.0 °F 31% 30.38 in 10.0 mi NE 5.8 mph - N/A   Clear
2:53 PM 62.1 °F 28.9 °F 29% 30.37 in 10.0 mi Variable 3.5 mph - N/A   Clear
3:53 PM 61.0 °F 28.9 °F 30% 30.37 in 10.0 mi NE 4.6 mph - N/A   Clear
4:53 PM 57.9 °F 28.9 °F 33% 30.37 in 10.0 mi NNE 3.5 mph - N/A   Clear
5:53 PM 44.1 °F 33.1 °F 65% 30.38 in 10.0 mi Calm Calm - N/A   Clear
6:53 PM 41.0 °F 30.9 °F 67% 30.41 in 10.0 mi Calm Calm - N/A   Clear
7:53 PM 37.9 °F 32.0 °F 79% 30.41 in 10.0 mi Calm Calm - N/A   Clear
8:53 PM 36.0 °F 30.9 °F 82% 30.42 in 10.0 mi Calm Calm - N/A   Clear
9:53 PM 34.0 °F 28.9 °F 82% 30.42 in 10.0 mi Calm Calm - N/A   Clear
10:53 PM 34.0 °F 30.0 °F 85% 30.42 in 10.0 mi Calm Calm - N/A   Clear
11:53 PM 32.0 °F 28.0 °F 85% 30.42 in 10.0 mi Calm Calm - N/A   Clear